Location: Karlovy Vary
(50.2170°N, 12.9000°E)
Time: 10:22:15
(UTC+01:00)

Envisat - Visible Passes

Search period start: 01 December 2020 00:00
Search period end: 11 December 2020 00:00
Orbit: 764 x 766 km, 98.1° (Epoch: 30 November)

Date Brightness Start Highest point End Pass type
(mag) Time Alt. Az. Time Alt. Az. Time Alt. Az.
01 Dec 6.0 04:41:17 10° NE 04:43:59 14° E 04:46:41 10° ESE visible
01 Dec 3.0 06:18:38 10° NNE 06:23:45 90° NW 06:28:50 10° SSW visible
01 Dec 4.3 17:38:09 10° S 17:43:00 44° W 17:47:53 10° NNW visible
02 Dec 4.1 05:41:57 10° NNE 05:46:51 45° E 05:51:43 10° S visible
02 Dec 3.1 17:01:00 10° SSE 17:06:04 88° WSW 17:11:13 10° NNW visible
02 Dec 6.1 18:43:16 10° WSW 18:45:52 14° W 18:48:28 10° NW visible
03 Dec 5.4 05:05:42 10° NE 05:09:45 23° E 05:13:45 10° SE visible
03 Dec 3.1 06:44:08 10° N 06:49:08 57° WNW 06:54:05 10° SSW visible
03 Dec 5.2 18:04:17 10° SSW 18:08:36 28° W 18:12:57 10° NW visible
04 Dec 6.2 04:30:49 10° ENE 04:32:25 11° E 04:34:02 10° ESE visible
04 Dec 3.2 06:07:15 10° NNE 06:12:21 74° ESE 06:17:26 10° S visible
04 Dec 3.8 17:26:35 10° S 17:31:33 55° W 17:36:33 10° NNW visible
05 Dec 4.5 05:30:40 10° NNE 05:35:23 37° E 05:40:05 10° SSE visible
05 Dec 3.5 07:09:47 10° N 07:14:25 36° WNW 07:19:01 10° SW visible
05 Dec 3.0 16:49:38 10° SSE 16:54:42 76° ENE 16:59:48 10° NNW visible
05 Dec 5.9 18:31:01 10° SW 18:34:19 17° W 18:37:38 10° NW visible
06 Dec 5.7 04:54:38 10° NE 04:58:14 19° E 05:01:47 10° SE visible
06 Dec 2.9 06:32:42 10° N 06:37:46 69° WNW 06:42:48 10° SSW visible
06 Dec 4.8 17:52:32 10° SSW 17:57:07 34° W 18:01:44 10° NNW visible
07 Dec 3.6 05:55:53 10° NNE 06:00:56 60° E 06:05:58 10° S visible
07 Dec 3.4 17:15:05 10° S 17:20:07 68° WSW 17:25:13 10° NNW visible
07 Dec 6.4 18:59:47 10° W 19:00:08 10° W 19:00:29 10° WNW visible
08 Dec 4.9 05:19:26 10° NNE 05:23:55 30° E 05:28:22 10° SSE visible
08 Dec 3.3 06:58:17 10° N 07:03:05 43° WNW 07:07:52 10° SW visible
08 Dec 3.0 16:38:19 10° SSE 16:43:19 62° ENE 16:48:22 10° N visible
08 Dec 5.6 18:18:58 10° SW 18:22:47 21° W 18:26:37 10° NW visible
09 Dec 5.9 04:43:43 10° NE 04:46:41 15° E 04:49:39 10° ESE visible
09 Dec 2.9 06:21:16 10° NNE 06:26:23 84° WNW 06:31:28 10° SSW visible
09 Dec 4.4 17:40:52 10° SSW 17:45:39 41° W 17:50:28 10° NNW visible
10 Dec 4.0 05:44:33 10° NNE 05:49:30 49° E 05:54:25 10° S visible
10 Dec 3.1 17:03:38 10° SSE 17:08:43 83° WSW 17:13:50 10° NNW visible
10 Dec 6.1 18:46:18 10° WSW 18:48:33 13° W 18:50:49 10° WNW visible
